{"data":{"norad_id":66742,"intl_designator":"2025-276CE","name":"MERCURY ONE (M1)","alt_names":[],"object_type":"PAYLOAD","status":"ACTIVE","operator":null,"country":"US","launch_date":"2025-11-28","launch_site_code":"AFWTR","launch_vehicle":null,"mission":null,"orbit_class":"UNKNOWN","rcs_meters":null,"size_class":null,"mass_kg":null,"dimensions":null,"purposes":[],"wikipedia_slug":null,"has_3d_model":false,"image_url":null,"decayed_at":null,"tle_current":{"epoch":"2026-05-25T03:35:35.056320Z","epoch_age_seconds":72602,"freshness":"FRESH","line1":"1 66742U 25276CE  26145.14971130  .00004529  00000+0  21713-3 0  9997","line2":"2 66742  97.4197 219.0853 0003670  71.6124 288.5510 15.19399685 26923","mean_motion":15.19399685,"eccentricity":0.000367,"inclination_deg":97.4197,"raan_deg":219.0853,"arg_perigee_deg":71.6124,"mean_anomaly_deg":288.551,"bstar":0.00021713,"rev_number":2692,"period_min":94.77427264308,"perigee_km":505.12664942206,"apogee_km":510.18081982127,"semimajor_km":6885.7907346217,"source":"CELESTRAK","updated_at":"2026-05-25T13:38:06.449449Z"}}}